Regional Weather Roundup
Issued by NWS Cleveland, OH

Home | Current Version | Previous Version | Graphics & Text | Print | Product List | Glossary On
Versions: 1 2 3 4 5 6 7 8 9 10 11 12 13 14 15 16 17 18 19 20 21 22 23 24 25 26 27 28 29 30 31 32 33 34 35 36 37 38 39 40 41 42 43 44 45 46 47 48 49 50
839
ASUS41 KCLE 250310
RWRCLE
OHIO REGIONAL WEATHER ROUNDUP
NATIONAL WEATHER SERVICE CLEVELAND, OH
1100 PM EDT MON APR 24 2017

NOTE: "FAIR" INDICATES FEW OR NO CLOUDS BELOW 12,000 FEET WITH NO
SIGNIFICANT WEATHER AND/OR OBSTRUCTIONS TO VISIBILITY.

OHZ001>008-015>018-024>027-034-035-043-044-250400-
   NORTHWEST OHIO

CITY           SKY/WX    TMP DP  RH WIND       PRES   REMARKS
DEFIANCE       PTCLDY    53  40  61 E10       29.86S
FINDLAY        MOCLDY    62  46  55 SE15G25   29.86S
TOLEDO EXPRESS CLOUDY    51  45  79 E7        29.88S
TOLEDO EXEC    CLOUDY    51  47  86 E7        29.90S
LIMA           CLEAR     57  48  72 E7        29.86S
$$

OHZ009>014-019>023-028>033-038-089-250400-
   NORTHEAST OHIO

CITY           SKY/WX    TMP DP  RH WIND       PRES   REMARKS
CLE-HOPKINS    LGT RAIN  60  43  53 SE14      29.95F
CLE-LAKEFRONT  CLOUDY    61  42  49 SE18G24   29.92F
CUY CO. ARPT   MOCLDY    63  32  31 SE14      29.95S
LORAIN-ELYRIA  CLOUDY    58  43  57 SE15G24   29.93S
ASHTABULA      CLOUDY    53  49  86 CALM      29.97F
AKRON-CANTON   CLOUDY    56  43  61 SE13G23   29.94F
WOOSTER        CLOUDY    55  45  68 SE15      29.94S
MANSFIELD      MOCLDY    57  46  66 E14       29.90F
YOUNGSTOWN     CLOUDY    58  40  51 SE15      29.98F
$$

OHZ042-051>053-060>062-070>072-077>081-250400-
  SOUTHWEST OHIO

CITY           SKY/WX    TMP DP  RH WIND       PRES   REMARKS
CINC-COVINGTON CLOUDY    62  53  72 E9        29.82R
CINC-LUNKEN    CLOUDY    62  55  77 E8        29.83R
HAMILTON       CLOUDY    62  54  74 E13       29.84R
DAYTON         MOCLDY    59  50  72 E10       29.85S
WRIGHT-PAT AFB MOCLDY    60  50  69 E12G18    29.84S
DAYTON GENERAL CLEAR     58  52  80 E7        29.83S
WILMINGTON     PTCLDY    56  52  86 E8        29.84S
$$

OHZ036-037-039>041-045>050-054>059-063>069-073>076-082>088-250400-
  CENTRAL AND SOUTHEAST OHIO

CITY           SKY/WX    TMP DP  RH WIND       PRES   REMARKS
COLUMBUS       MOCLDY    57  48  72 E15       29.88S
OSU AIRPORT    PTCLDY    56  48  74 E14       29.88S
BOLTON FIELD   MOCLDY    56  47  74 E10       29.88F
RICKENBACK AFB CLOUDY    56  48  74 E10       29.87S
NEWARK         CLOUDY    56  46  69 E12       29.89F
MARION         PTCLDY    57  45  64 SE14G23   29.89F
LANCASTER      CLOUDY    57  48  72 E9        29.88F
ZANESVILLE     CLOUDY    55  47  74 E7        29.92S
NEW PHILLY     NOT AVBL
$$




USA.gov is the U.S. government's official web portal to all federal, state and local government web resources and services.